Stations météo

réclame
Mon MeteoGroup
Harsfjarden, Suède (2489): Température de l'air & dewpoint: 16.10.2017 06:00:00 - 22.10.2017 06:00:00 (CEST)Harsfjarden, Suède (2489): Vitesse du vent & gusts: 16.10.2017 06:00:00 - 22.10.2017 06:00:00 (CEST)Harsfjarden, Suède (2489): Direction du vent: 16.10.2017 06:00:00 - 22.10.2017 06:00:00 (CEST)Harsfjarden, Suède (2489): reduced air pressure: 16.10.2017 06:00:00 - 22.10.2017 06:00:00 (CEST)Harsfjarden, Suède (2489): visibility: 16.10.2017 06:00:00 - 22.10.2017 06:00:00 (CEST)Harsfjarden, Suède (2489): Quantités de précipitations: 16.10.2017 06:00:00 - 22.10.2017 06:00:00 (CEST)
Date & Time tt [°C] td [°C] ff [km/h] ff [knt] fx [km/h] fx [knt] dd ppp [hPa] vv [km] rr [mm]
22.10.2017 06:00:00 7,8 3,5 14 8 22 12 SE 1019,4 50 0,0
22.10.2017 05:00:00 7,7 3,0 14 8 22 12 SE 1020,0 50 0,0
22.10.2017 04:00:00 8,1 3,4 14 8 22 12 SE 1020,4 50 0,0
22.10.2017 03:00:00 8,2 3,8 18 10 22 12 SE 1020,8 50 0,0
22.10.2017 02:00:00 8,2 3,6 14 8 25 14 SE 1021,3 50 0,0
22.10.2017 01:00:00 8,1 3,4 18 10 25 14 SE 1021,6 50 0,0
22.10.2017 00:00:00 8,2 3,1 14 8 25 14 SE 1021,7 50 0,0
21.10.2017 23:00:00 8,4 3,6 14 8 25 14 SE 1021,9 50 0,0
21.10.2017 22:00:00 8,4 3,4 11 6 29 16 ESE 1022,0 50 0,0
21.10.2017 21:00:00 8,2 2,6 18 10 29 16 ESE 1022,0 50 0,0
21.10.2017 20:00:00 8,3 3,1 11 6 25 14 ESE 1022,4 50 0,0
21.10.2017 19:00:00 7,8 3,1 7 4 22 12 E 1022,3 50 0,0
21.10.2017 18:00:00 7,6 2,5 7 4 22 12 ENE 1022,1 50 0,0
21.10.2017 17:00:00 8,2 2,9 7 4 22 12 ESE 1022,3 50 0,0
21.10.2017 16:00:00 8,4 2,2 7 4 22 12 ENE 1022,5 45 0,0
21.10.2017 15:00:00 8,9 2,7 7 4 25 14 E 1022,6 45 0,0
21.10.2017 14:00:00 8,8 3,0 11 6 22 12 ENE 1022,7 45 0,0
21.10.2017 13:00:00 8,6 3,2 11 6 22 12 ENE 1022,9 50 0,0
21.10.2017 12:00:00 9,0 3,8 11 6 29 16 ENE 1022,9 50 0,0
21.10.2017 11:00:00 9,0 4,0 11 6 25 14 ENE 1022,7 45 0,0
21.10.2017 10:00:00 9,0 3,2 11 6 25 14 ENE 1022,3 50 0,0
21.10.2017 09:00:00 8,6 3,6 11 6 22 12 ENE 1022,2 50 0,0
21.10.2017 08:00:00 8,1 3,7 11 6 25 14 ENE 1022,1 50 0,0
21.10.2017 07:00:00 5,8 4,1 7 4 18 10 NE 1021,8 50 0,0
21.10.2017 06:00:00 4,4 3,7 7 4 11 6 NNE 1021,8 50 0,0
21.10.2017 05:00:00 5,1 3,9 7 4 11 6 NNE 1021,7 50 0,0
21.10.2017 04:00:00 4,3 3,3 7 4 14 8 NNE 1021,9 50 0,0
21.10.2017 03:00:00 6,5 4,8 7 4 14 8 NE 1022,0 50 0,0
21.10.2017 02:00:00 3,8 2,8 7 4 11 6 NNE 1022,3 50 0,0
21.10.2017 01:00:00 6,5 3,5 7 4 14 8 NE 1022,2 50 0,0
21.10.2017 00:00:00 9,1 4,1 7 4 22 12 ENE 1022,2 50 0,0
20.10.2017 23:00:00 9,6 5,8 11 6 22 12 ESE 1022,3 50 0,0
20.10.2017 22:00:00 6,0 4,8 7 4 11 6 NNE 1022,3 50 0,0
20.10.2017 21:00:00 4,9 4,2 7 4 14 8 NNE 1022,4 50 0,0
20.10.2017 20:00:00 4,7 4,0 7 4 14 8 NE 1022,5 50 0,0
20.10.2017 19:00:00 4,7 4,3 7 4 11 6 NE 1022,0 50 0,0
20.10.2017 18:00:00 5,7 4,5 7 4 11 6 NNE 1022,1 50 0,0
20.10.2017 17:00:00 6,1 5,1 4 2 7 4 NNE 1022,0 50 0,0
20.10.2017 16:00:00 8,0 5,1 4 2 14 8 NE 1022,1 45 0,0
20.10.2017 15:00:00 9,4 5,6 11 6 14 8 SE 1022,1 50 0,0
20.10.2017 14:00:00 9,7 5,4 4 2 18 10 E 1022,2 50 0,0
20.10.2017 13:00:00 10,2 5,2 7 4 22 12 ESE 1022,2 45 0,0
20.10.2017 12:00:00 10,1 5,3 14 8 18 10 SE 1022,7 45 0,0
20.10.2017 11:00:00 8,1 6,7 7 4 18 10 ESE 1022,7 45 0,0
20.10.2017 10:00:00 3,1 3,1 4 2 4 2 N 1022,4 45 0,0
20.10.2017 09:00:00 1,5 1,5 4 2 4 2 N 1022,0 45 0,0
20.10.2017 08:00:00 -0,2 -0,2 4 2 4 2 N 1021,9 45 0,0
20.10.2017 07:00:00 0,4 0,4 4 2 4 2 N 1021,9 45 0,0
20.10.2017 06:00:00 0,1 0,1 4 2 4 2 N 1022,1 45 0,0
20.10.2017 05:00:00 -0,3 -0,3 4 2 7 4 N 1022,2 40 0,0
20.10.2017 04:00:00 0,3 0,3 4 2 7 4 N 1022,3 40 0,0
20.10.2017 03:00:00 0,9 0,9 4 2 4 2 N 1022,5 45 0,0
20.10.2017 02:00:00 1,0 1,0 4 2 4 2 N 1022,5 40 0,0
20.10.2017 01:00:00 1,3 1,2 4 2 4 2 NNW 1022,4 35 0,0
20.10.2017 00:00:00 1,3 1,2 0 0 0 0 N 1022,5 40 0,0
19.10.2017 23:00:00 1,2 1,1 0 0 0 0 N 1022,6 35 0,0
19.10.2017 22:00:00 0,8 0,7 0 0 4 2 N 1022,4 40 0,0
19.10.2017 21:00:00 1,5 1,4 0 0 4 2 N 1022,3 45 0,0
19.10.2017 20:00:00 2,2 1,9 0 0 4 2 N 1022,2 50 0,0
19.10.2017 19:00:00 3,3 2,7 0 0 7 4 N 1022,1 50 0,0
19.10.2017 18:00:00 4,3 3,3 4 2 7 4 N 1021,8 50 0,0
19.10.2017 17:00:00 7,1 4,2 4 2 7 4 NNW 1021,4 50 0,0
19.10.2017 16:00:00 9,6 3,8 4 2 11 6 NNW 1021,4 45 0,0
19.10.2017 15:00:00 9,9 3,8 4 2 14 8 NNW 1021,1 45 0,0
19.10.2017 14:00:00 9,8 3,7 7 4 18 10 NW 1021,1 45 0,0
19.10.2017 13:00:00 9,3 4,3 7 4 14 8 N 1021,0 45 0,0
19.10.2017 12:00:00 9,2 4,2 7 4 14 8 WNW 1021,1 40 0,0
19.10.2017 11:00:00 7,0 3,6 7 4 14 8 N 1020,9 45 0,0
19.10.2017 10:00:00 5,6 3,6 11 6 14 8 NNW 1020,5 45 0,0
19.10.2017 09:00:00 3,6 3,3 7 4 11 6 WNW 1020,4 45 0,0
19.10.2017 08:00:00 0,4 0,3 0 0 7 4 N 1019,7 45 0,0
19.10.2017 07:00:00 1,4 1,0 7 4 11 6 WNW 1019,0 50 0,0
19.10.2017 06:00:00 2,7 2,1 7 4 11 6 WNW 1018,8 50 0,0
19.10.2017 05:00:00 3,5 2,5 7 4 11 6 NW 1018,4 50 0,0
19.10.2017 04:00:00 4,1 2,8 7 4 11 6 NNW 1018,0 50 0,0
19.10.2017 03:00:00 4,8 3,3 7 4 14 8 NNW 1017,7 50 0,0
19.10.2017 02:00:00 5,5 4,0 11 6 14 8 NNW 1017,3 50 0,0
19.10.2017 01:00:00 5,4 4,0 7 4 18 10 NW 1017,3 50 0,0
19.10.2017 00:00:00 5,6 4,1 7 4 18 10 NW 1017,1 50 0,0
18.10.2017 23:00:00 6,1 4,3 11 6 18 10 WNW 1016,7 50 0,0
18.10.2017 22:00:00 6,5 4,3 7 4 18 10 WNW 1016,2 50 0,0
18.10.2017 21:00:00 6,8 4,6 11 6 18 10 WNW 1015,8 50 0,0
18.10.2017 20:00:00 7,1 4,7 7 4 22 12 WNW 1015,3 50 0,0
18.10.2017 19:00:00 7,8 4,7 11 6 22 12 WNW 1014,7 50 0,0
18.10.2017 18:00:00 8,2 4,6 7 4 18 10 WNW 1014,2 50 0,0
18.10.2017 17:00:00 9,3 4,7 7 4 22 12 WNW 1013,5 50 0,0
18.10.2017 16:00:00 10,4 4,7 11 6 32 18 W 1013,0 45 0,0
18.10.2017 15:00:00 10,5 4,6 14 8 25 14 WNW 1012,5 45 0,0
18.10.2017 14:00:00 10,5 4,8 14 8 25 14 WNW 1012,2 45 0,0
18.10.2017 13:00:00 10,0 4,6 11 6 22 12 WNW 1011,8 45 0,0
18.10.2017 12:00:00 9,1 5,3 11 6 25 14 WNW 1011,4 45 0,0
18.10.2017 11:00:00 8,3 5,6 11 6 22 12 WNW 1010,8 45 0,0
18.10.2017 10:00:00 7,6 6,1 14 8 25 14 NNW 1009,9 45 0,0
18.10.2017 09:00:00 7,3 6,2 7 4 22 12 NNW 1008,7 50 0,0
18.10.2017 08:00:00 7,3 6,7 11 6 29 16 NNW 1008,0 30 0,0
18.10.2017 07:00:00 8,0 7,4 11 6 32 18 NNW 1006,2 50 0,0
18.10.2017 06:00:00 9,0 8,2 18 10 32 18 N 1004,8 30 0,1
18.10.2017 05:00:00 10,8 10,8 14 8 25 14 W 1003,2 45 0,8
18.10.2017 04:00:00 10,8 10,6 14 8 25 14 WSW 1002,8 3,4 0,7
18.10.2017 03:00:00 10,7 10,5 14 8 25 14 WSW 1002,8 10 1,0
18.10.2017 02:00:00 10,8 10,6 14 8 32 18 WSW 1003,2 7 0,4
18.10.2017 01:00:00 10,7 10,4 11 6 25 14 SW 1003,4 3,6 0,3
18.10.2017 00:00:00 11,0 10,4 11 6 22 12 WSW 1003,8 4,4 0,3
17.10.2017 23:00:00 11,1 10,2 11 6 25 14 WSW 1004,1 7 0,2
17.10.2017 22:00:00 12,6 9,4 14 8 32 18 SW 1004,3 40 0,0
17.10.2017 21:00:00 12,5 9,3 14 8 25 14 SW 1004,5 35 0,0
17.10.2017 20:00:00 12,6 9,6 14 8 22 12 SW 1004,8 29 0,0
17.10.2017 19:00:00 12,6 9,6 14 8 29 16 WSW 1005,3 30 0,0
17.10.2017 18:00:00 12,5 10,2 7 4 29 16 WSW 1005,7 18 0,0
17.10.2017 17:00:00 13,9 10,1 14 8 29 16 WSW 1005,9 21 0,0
17.10.2017 16:00:00 14,5 10,1 14 8 29 16 WSW 1006,2 24 0,0
17.10.2017 15:00:00 14,0 12,9 11 6 29 16 WSW 1006,3 12 0,0
17.10.2017 14:00:00 13,8 12,7 18 10 29 16 SSW 1006,3 8 0,0
17.10.2017 13:00:00 13,3 12,7 14 8 29 16 SW 1007,2 7 0,0
17.10.2017 12:00:00 12,7 12,2 14 8 32 18 SSW 1008,1 10 0,0
17.10.2017 11:00:00 11,7 10,9 22 12 32 18 SSW 1009,4 26 0,0
17.10.2017 10:00:00 11,3 10,8 18 10 25 14 S 1010,3 26 0,0
17.10.2017 09:00:00 10,8 10,6 7 4 22 12 S 1012,1 22 0,0
17.10.2017 08:00:00 10,7 10,7 14 8 22 12 S 1012,4 13 0,4
17.10.2017 07:00:00 10,4 10,4 11 6 14 8 SE 1013,3 15 0,4
17.10.2017 06:00:00 9,7 9,7 0 0 4 2 N 1015,6 6 0,2
17.10.2017 05:00:00 10,1 9,9 0 0 7 4 N 1015,7 13 0,1
17.10.2017 04:00:00 10,3 10,1 0 0 11 6 N 1015,9 15 0,0
17.10.2017 03:00:00 10,3 10,1 4 2 7 4 WNW 1016,2 15 0,0
17.10.2017 02:00:00 10,2 9,9 0 0 7 4 N 1015,9 10 0,5
17.10.2017 01:00:00 10,8 10,0 0 0 7 4 N 1015,4 19 0,0
17.10.2017 00:00:00 11,4 10,1 4 2 14 8 WNW 1015,6 22 0,0
16.10.2017 23:00:00 11,8 10,2 7 4 14 8 WNW 1015,3 25 0,0
16.10.2017 22:00:00 11,5 10,2 7 4 14 8 W 1015,0 26 0,0
16.10.2017 21:00:00 11,0 10,1 7 4 11 6 W 1015,0 24 0,0
16.10.2017 20:00:00 11,5 10,4 7 4 11 6 W 1014,7 29 0,0
16.10.2017 19:00:00 12,3 10,5 7 4 11 6 W 1014,2 30 0,0
16.10.2017 18:00:00 13,1 10,6 7 4 14 8 W 1013,3 35 0,0
16.10.2017 17:00:00 15,2 11,0 7 4 14 8 W 1012,3 40 0,0
16.10.2017 16:00:00 16,4 11,5 7 4 25 14 W 1011,8 40 0,0
16.10.2017 15:00:00 16,8 11,3 14 8 40 21 WNW 1011,2 45 0,0
16.10.2017 14:00:00 16,8 11,3 14 8 32 18 W 1011,0 35 0,0
16.10.2017 13:00:00 16,2 11,1 14 8 32 18 W 1010,4 45 0,0
16.10.2017 12:00:00 16,0 11,6 18 10 36 19 W 1009,9 40 0,0
16.10.2017 11:00:00 15,8 11,6 14 8 32 18 W 1009,4 40 0,0
16.10.2017 10:00:00 15,6 12,5 14 8 29 16 W 1008,6 45 0,0
16.10.2017 09:00:00 14,4 12,6 11 6 22 12 WSW 1008,0 30 0,0
16.10.2017 08:00:00 13,8 12,2 14 8 29 16 WSW 1007,9 23 0,0
16.10.2017 07:00:00 13,5 12,1 14 8 29 16 SW 1007,7 21 0,0
16.10.2017 06:00:00 13,2 11,9 18 10 29 16 SW 1008,3 29 0,0

tt = Température de l'air
td = dewpoint
ff = Vitesse du vent
fx = gusts
dd = Direction du vent
ppp = reduced air pressure
vv = visibility
rr = Quantités de précipitations

stations d'obs. à proximité